Weather History for KMWM - December, 2014

Change the Weather History Date:

Wednesday, December 24, 2014

  Actual Average Record
Temperature  
Mean Temperature 29 °F -  
Max Temperature 32 °F 22 °F 46 °F (2011)
Min Temperature 26 °F 4 °F -28 °F (1983)
Degree Days  
Heating Degree Days 36    
Moisture  
Dew Point 29 °F    
Average Humidity 98    
Maximum Humidity 100    
Minimum Humidity 87    
Precipitation  
Precipitation 0.01 in - - ()
Sea Level Pressure  
Sea Level Pressure 29.73 in    
Wind  
Wind Speed 15 mph (WNW)    
Max Wind Speed 23 mph    
Max Gust Speed 29 mph    
Visibility 7 miles    
Events Snow    
Averages and records for this station are not official NWS values.
T = Trace of Precipitation, MM = Missing Value Source: NWS Daily Summary

Daily Weather History Graph

Daily Weather History Graph

Search for Another Location

Airport or City:

Trip Planner

Search our weather history database for the weather conditions in past years. The results will help you decide how hot, cold, wet, or windy it might be!

Date:

Astronomy

Dec. 24, 2014 Rise Set
Actual Time 7:53 AM CST 4:47 PM CST
Civil Twilight 7:19 AM CST 5:20 PM CST
Nautical Twilight 6:43 AM CST 5:56 PM CST
Astronomical Twilight 6:08 AM CST 6:31 PM CST
Moon 9:39 AM CST (12/24) 8:18 PM CST (12/24)
Length of Visible Light 10h 00m
Length of Day
8h 54m
Waxing Crescent, 10% of the Moon is Illuminated
Dec 24
Waxing Crescent
Dec 28
First Quarter
Jan 4
Full
Jan 13
Last Quarter
Jan 20
New

Hourly Weather History & Observations

Time (CST) Temp. Windchill Dew Point Humidity Pressure Visibility Wind Dir Wind Speed Gust Speed Precip Events Conditions
12:13 AM 32.0 °F 19.8 °F 32.0 °F 100% 29.89 in 3.0 mi NW 20.7 mph - N/A Snow Light Snow
12:34 AM 32.0 °F 19.8 °F 32.0 °F 100% 29.88 in 5.0 mi NW 20.7 mph 26.5 mph N/A Snow Light Snow
12:53 AM 32.0 °F 19.8 °F 30.2 °F 93% 29.87 in 7.0 mi NW 20.7 mph 25.3 mph N/A Snow Light Snow
1:13 AM 32.0 °F 19.5 °F 30.2 °F 93% 29.86 in 10.0 mi NW 21.9 mph 28.8 mph N/A   Overcast
1:34 AM 32.0 °F 19.2 °F 30.2 °F 93% 29.85 in 10.0 mi NW 23.0 mph 26.5 mph N/A   Overcast
1:53 AM 32.0 °F 20.5 °F 30.2 °F 93% 29.85 in 7.0 mi NW 18.4 mph 25.3 mph N/A   Overcast
2:13 AM 30.2 °F 17.1 °F 30.2 °F 100% 29.85 in 3.0 mi NW 21.9 mph 27.6 mph N/A   Overcast
2:34 AM 30.2 °F 16.8 °F 30.2 °F 100% 29.85 in 4.0 mi NW 23.0 mph 27.6 mph N/A   Overcast
2:53 AM 30.2 °F 18.5 °F 30.2 °F 100% 29.85 in 7.0 mi NNW 17.3 mph 25.3 mph N/A   Overcast
3:13 AM 30.2 °F 17.8 °F 30.2 °F 100% 29.84 in 5.0 mi NW 19.6 mph 26.5 mph N/A   Overcast
3:33 AM 30.2 °F 17.4 °F 30.2 °F 100% 29.85 in 7.0 mi NW 20.7 mph 25.3 mph N/A   Overcast
3:53 AM 30.2 °F 18.5 °F 30.2 °F 100% 29.85 in 5.0 mi NW 17.3 mph 20.7 mph N/A   Overcast
4:14 AM 30.2 °F 18.1 °F 30.2 °F 100% 29.85 in 10.0 mi NW 18.4 mph - N/A   Overcast
4:33 AM 30.2 °F 18.1 °F 30.2 °F 100% 29.84 in 7.0 mi NNW 18.4 mph - N/A   Overcast
4:53 AM 30.2 °F 18.5 °F 30.2 °F 100% 29.84 in 3.0 mi NNW 17.3 mph 21.9 mph N/A   Overcast
5:14 AM 30.2 °F 19.3 °F 30.2 °F 100% 29.84 in 10.0 mi NNW 15.0 mph 24.2 mph N/A   Overcast
5:33 AM 30.2 °F 19.8 °F 30.2 °F 100% 29.83 in 10.0 mi NNW 13.8 mph - N/A   Overcast
5:53 AM 30.2 °F 20.2 °F 30.2 °F 100% 29.83 in 10.0 mi NNW 12.7 mph - N/A   Overcast
6:14 AM 30.2 °F 20.2 °F 30.2 °F 100% 29.82 in 7.0 mi NNW 12.7 mph - N/A   Overcast
6:33 AM 30.2 °F 20.8 °F 30.2 °F 100% 29.82 in 7.0 mi NNW 11.5 mph - N/A   Overcast
6:53 AM 30.2 °F 19.3 °F 30.2 °F 100% 29.82 in 1.5 mi NW 15.0 mph - N/A   Overcast
7:14 AM 30.2 °F 19.3 °F 30.2 °F 100% 29.82 in 2.0 mi NW 15.0 mph - N/A   Overcast
7:33 AM 30.2 °F 19.3 °F 30.2 °F 100% 29.82 in 2.5 mi NW 15.0 mph - N/A   Overcast
7:53 AM 30.2 °F 21.3 °F 30.2 °F 100% 29.82 in 2.5 mi NNW 10.4 mph - N/A   Overcast
8:14 AM 30.2 °F 21.3 °F 30.2 °F 100% 29.82 in 2.0 mi NNW 10.4 mph - N/A   Overcast
8:33 AM 30.2 °F 20.2 °F 30.2 °F 100% 29.80 in 1.2 mi NNW 12.7 mph - N/A   Overcast
8:54 AM 30.2 °F 21.9 °F 30.2 °F 100% 29.80 in 1.2 mi NW 9.2 mph - N/A Snow Light Snow
9:14 AM 30.2 °F 20.2 °F 30.2 °F 100% 29.80 in 1.5 mi NW 12.7 mph - N/A Snow Light Snow
9:53 AM 30.2 °F 20.8 °F 30.2 °F 100% 29.80 in 1.0 mi NW 11.5 mph - N/A Snow Light Snow
10:14 AM 30.2 °F 21.3 °F 30.2 °F 100% 29.79 in 1.0 mi WNW 10.4 mph - N/A Snow Light Snow
10:34 AM 30.2 °F 20.8 °F 30.2 °F 100% 29.79 in 1.8 mi WNW 11.5 mph - N/A Snow Light Snow
10:53 AM 30.2 °F 20.8 °F 30.2 °F 100% 29.78 in 1.8 mi WNW 11.5 mph - N/A Snow Light Snow
11:14 AM 30.2 °F 21.3 °F 30.2 °F 100% 29.77 in 3.0 mi WNW 10.4 mph - N/A Snow Light Snow
11:34 AM 30.2 °F 21.3 °F 30.2 °F 100% 29.76 in 5.0 mi WNW 10.4 mph - N/A   Overcast
11:53 AM 30.2 °F 22.6 °F 30.2 °F 100% 29.74 in 4.0 mi WNW 8.1 mph - N/A Snow Light Snow
12:14 PM 30.2 °F 20.2 °F 28.4 °F 93% 29.73 in 10.0 mi WNW 12.7 mph - N/A   Overcast
12:34 PM 30.2 °F 21.3 °F 28.4 °F 93% 29.71 in 10.0 mi NW 10.4 mph - N/A   Overcast
12:53 PM 30.2 °F 21.3 °F 30.2 °F 100% 29.70 in 10.0 mi WNW 10.4 mph 17.3 mph N/A   Overcast
1:14 PM 30.2 °F 21.3 °F 30.2 °F 100% 29.69 in 10.0 mi WNW 10.4 mph - N/A   Overcast
1:34 PM 30.2 °F 19.8 °F 30.2 °F 100% 29.68 in 10.0 mi West 13.8 mph - N/A   Overcast
1:53 PM 32.0 °F 22.1 °F 30.2 °F 93% 29.67 in 10.0 mi WNW 13.8 mph - N/A   Overcast
2:14 PM 32.0 °F 24.8 °F 30.2 °F 93% 29.66 in 10.0 mi WNW 8.1 mph - N/A   Overcast
2:34 PM 32.0 °F 23.0 °F 30.2 °F 93% 29.66 in 10.0 mi West 11.5 mph - N/A   Overcast
2:53 PM 32.0 °F 23.0 °F 30.2 °F 93% 29.67 in 10.0 mi West 11.5 mph - N/A   Overcast
3:14 PM 32.0 °F 24.8 °F 28.4 °F 87% 29.67 in 10.0 mi West 8.1 mph - N/A   Overcast
3:33 PM 30.2 °F 21.9 °F 28.4 °F 93% 29.67 in 10.0 mi West 9.2 mph - N/A   Overcast
3:53 PM 30.2 °F - 28.4 °F 93% 29.67 in 10.0 mi Calm Calm - N/A   Overcast
4:14 PM 30.2 °F 22.6 °F 28.4 °F 93% 29.66 in 10.0 mi West 8.1 mph - N/A   Overcast
4:33 PM 30.2 °F 25.4 °F 28.4 °F 93% 29.65 in 10.0 mi West 4.6 mph - N/A   Overcast
4:53 PM 30.2 °F - 28.4 °F 93% 29.65 in 10.0 mi Calm Calm - N/A   Overcast
5:14 PM 30.2 °F 22.6 °F 28.4 °F 93% 29.65 in 10.0 mi SW 8.1 mph - N/A   Unknown
5:33 PM 30.2 °F 22.6 °F 28.4 °F 93% 29.65 in 10.0 mi WSW 8.1 mph - N/A   Overcast
5:54 PM 28.4 °F 23.3 °F 28.4 °F 100% 29.65 in 10.0 mi WSW 4.6 mph - N/A   Overcast
6:14 PM 28.4 °F 19.1 °F 28.4 °F 100% 29.64 in 10.0 mi SW 10.4 mph - N/A   Overcast
6:33 PM 28.4 °F 22.2 °F 26.6 °F 93% 29.63 in 10.0 mi SSW 5.8 mph - 0.01 in   Overcast
6:54 PM 28.4 °F 20.4 °F 26.6 °F 93% 29.62 in 10.0 mi SSW 8.1 mph - 0.01 in   Overcast
7:14 PM 28.4 °F 19.1 °F 26.6 °F 93% 29.62 in 7.0 mi SSW 10.4 mph - N/A   Overcast
7:33 PM 26.6 °F 16.8 °F 26.6 °F 100% 29.62 in 10.0 mi SSW 10.4 mph - N/A   Overcast
7:54 PM 26.6 °F 15.7 °F 26.6 °F 100% 29.62 in 10.0 mi SSW 12.7 mph - N/A   Overcast
8:13 PM 26.6 °F 15.7 °F 26.6 °F 100% 29.63 in 10.0 mi SSW 12.7 mph - N/A   Overcast
8:34 PM 26.6 °F 15.2 °F 26.6 °F 100% 29.62 in 10.0 mi SSW 13.8 mph 21.9 mph N/A   Overcast
8:53 PM 26.6 °F 15.7 °F 26.6 °F 100% 29.62 in 7.0 mi SSW 12.7 mph 18.4 mph N/A   Overcast
9:13 PM 26.6 °F 15.2 °F 26.6 °F 100% 29.61 in 5.0 mi SW 13.8 mph - N/A   Overcast
9:34 PM 26.6 °F 15.2 °F 26.6 °F 100% 29.60 in 5.0 mi SSW 13.8 mph - N/A   Overcast
9:53 PM 26.6 °F 15.7 °F 26.6 °F 100% 29.61 in 7.0 mi SSW 12.7 mph - N/A   Overcast
10:14 PM 26.6 °F 14.7 °F 26.6 °F 100% 29.59 in 7.0 mi SSW 15.0 mph - N/A   Overcast
10:34 PM 26.6 °F 14.7 °F 26.6 °F 100% 29.60 in 10.0 mi SSW 15.0 mph 21.9 mph N/A   Overcast
10:53 PM 26.6 °F 16.2 °F 24.8 °F 93% 29.59 in 10.0 mi SSW 11.5 mph - N/A   Overcast
11:14 PM 26.6 °F 15.7 °F 24.8 °F 93% 29.58 in 10.0 mi SSW 12.7 mph 19.6 mph N/A   Overcast
11:34 PM 26.6 °F 14.7 °F 24.8 °F 93% 29.59 in 10.0 mi SSW 15.0 mph 19.6 mph N/A   Overcast
11:53 PM 26.6 °F 15.2 °F 24.8 °F 93% 29.58 in 10.0 mi South 13.8 mph 18.4 mph N/A   Overcast